Time,TemperatureF,DewpointF,PressureIn,WindDirection,WindDirectionDegrees,WindSpeedMPH,WindSpeedGustMPH,Humidity,HourlyPrecipIn,Conditions,Clouds,dailyrainin,SoftwareType,DateUTC
2013-06-16 00:01:00,75.0,64.0,-100.00,SW,220,14.0,31.0,67,-99.99,,,-99.99,,2013-06-16 05:01:00,
2013-06-16 00:12:00,74.0,63.0,-100.00,SW,235,20.0,32.0,69,-99.99,,,-99.99,,2013-06-16 05:12:00,
2013-06-16 00:22:00,74.0,63.0,-100.00,SW,235,20.0,32.0,69,-99.99,,,-99.99,,2013-06-16 05:22:00,
2013-06-16 00:34:00,73.0,63.0,-100.00,SW,235,11.0,29.0,70,-99.99,,,-99.99,,2013-06-16 05:34:00,
2013-06-16 00:43:00,73.0,63.0,-100.00,WSW,240,14.0,27.0,71,-99.99,,,-99.99,,2013-06-16 05:43:00,
2013-06-16 00:52:00,73.0,63.0,-100.00,WSW,240,14.0,27.0,71,-99.99,,,-99.99,,2013-06-16 05:52:00,
2013-06-16 01:01:00,72.0,63.0,-100.00,SW,235,10.0,23.0,73,-99.99,,,-99.99,,2013-06-16 06:01:00,
2013-06-16 01:11:00,72.0,63.0,-100.00,WSW,240,11.0,23.0,75,-99.99,,,-99.99,,2013-06-16 06:11:00,
2013-06-16 01:22:00,72.0,63.0,-100.00,WSW,240,11.0,23.0,75,-99.99,,,-99.99,,2013-06-16 06:22:00,
2013-06-16 01:33:00,71.0,63.0,-100.00,WSW,245,13.0,21.0,76,-99.99,,,-99.99,,2013-06-16 06:33:00,
2013-06-16 01:43:00,71.0,63.0,-100.00,WSW,245,9.0,17.0,78,-99.99,,,-99.99,,2013-06-16 06:43:00,
2013-06-16 01:52:00,71.0,63.0,-100.00,WSW,245,9.0,17.0,78,-99.99,,,-99.99,,2013-06-16 06:52:00,
2013-06-16 02:01:00,70.0,63.0,-100.00,SW,220,9.0,18.0,78,-99.99,,,-99.99,,2013-06-16 07:01:00,
2013-06-16 02:11:00,70.0,63.0,-100.00,WSW,245,10.0,15.0,78,-99.99,,,-99.99,,2013-06-16 07:11:00,
2013-06-16 02:22:00,70.0,63.0,-100.00,WSW,245,10.0,15.0,78,-99.99,,,-99.99,,2013-06-16 07:22:00,
2013-06-16 02:33:00,70.0,63.0,-100.00,WSW,245,9.0,15.0,78,-99.99,,,-99.99,,2013-06-16 07:33:00,
2013-06-16 02:43:00,70.0,63.0,-100.00,WSW,245,9.0,15.0,78,-99.99,,,-99.99,,2013-06-16 07:43:00,
2013-06-16 02:53:00,70.0,63.0,-100.00,WSW,245,9.0,15.0,78,-99.99,,,-99.99,,2013-06-16 07:53:00,
2013-06-16 03:02:00,69.0,63.0,-100.00,West,275,6.0,11.0,80,-99.99,,,-99.99,,2013-06-16 08:02:00,
2013-06-16 03:12:00,69.0,63.0,-100.00,West,260,4.0,10.0,80,-99.99,,,-99.99,,2013-06-16 08:12:00,
2013-06-16 03:22:00,69.0,63.0,-100.00,West,260,4.0,10.0,80,-99.99,,,-99.99,,2013-06-16 08:22:00,
2013-06-16 03:33:00,69.0,63.0,-100.00,West,260,4.0,10.0,80,-99.99,,,-99.99,,2013-06-16 08:33:00,
2013-06-16 03:43:00,69.0,63.0,-100.00,West,265,6.0,11.0,81,-99.99,,,-99.99,,2013-06-16 08:43:00,
2013-06-16 03:54:00,69.0,63.0,-100.00,West,265,6.0,11.0,81,-99.99,,,-99.99,,2013-06-16 08:54:00,
2013-06-16 04:02:00,69.0,62.0,-100.00,West,280,7.0,11.0,80,-99.99,,,-99.99,,2013-06-16 09:02:00,
2013-06-16 04:11:00,68.0,62.0,-100.00,West,260,7.0,11.0,81,-99.99,,,-99.99,,2013-06-16 09:11:00,
2013-06-16 04:22:00,68.0,62.0,-100.00,West,260,7.0,11.0,81,-99.99,,,-99.99,,2013-06-16 09:22:00,
2013-06-16 04:33:00,68.0,62.0,-100.00,WSW,255,5.0,10.0,82,-99.99,,,-99.99,,2013-06-16 09:33:00,
2013-06-16 04:43:00,67.0,62.0,-100.00,West,260,5.0,7.0,84,-99.99,,,-99.99,,2013-06-16 09:43:00,
2013-06-16 04:52:00,67.0,62.0,-100.00,West,260,5.0,7.0,84,-99.99,,,-99.99,,2013-06-16 09:52:00,
2013-06-16 05:02:00,67.0,62.0,-100.00,West,260,5.0,7.0,84,-99.99,,,-99.99,,2013-06-16 10:02:00,
2013-06-16 05:12:00,66.0,62.0,-100.00,WSW,255,4.0,9.0,87,-99.99,,,-99.99,,2013-06-16 10:12:00,
2013-06-16 05:22:00,66.0,62.0,-100.00,WSW,255,4.0,9.0,87,-99.99,,,-99.99,,2013-06-16 10:22:00,
2013-06-16 05:30:00,65.0,62.0,-100.00,WNW,285,4.0,6.0,90,-99.99,,,-99.99,,2013-06-16 10:30:00,
2013-06-16 05:33:00,66.0,62.0,-100.00,West,260,4.0,6.0,88,-99.99,,,-99.99,,2013-06-16 10:33:00,
2013-06-16 05:43:00,66.0,62.0,-100.00,WNW,285,4.0,7.0,89,-99.99,,,-99.99,,2013-06-16 10:43:00,
2013-06-16 05:54:00,66.0,62.0,-100.00,WNW,285,4.0,7.0,89,-99.99,,,-99.99,,2013-06-16 10:54:00,
2013-06-16 06:02:00,65.0,62.0,-100.00,WNW,285,4.0,6.0,90,-99.99,,,-99.99,,2013-06-16 11:02:00,
2013-06-16 06:11:00,65.0,62.0,-100.00,WNW,285,4.0,6.0,90,-99.99,,,-99.99,,2013-06-16 11:11:00,
2013-06-16 06:22:00,65.0,62.0,-100.00,WNW,285,4.0,6.0,90,-99.99,,,-99.99,,2013-06-16 11:22:00,
2013-06-16 06:43:00,67.0,63.0,-100.00,NW,320,0.0,2.0,87,-99.99,,,-99.99,,2013-06-16 11:43:00,
2013-06-16 06:53:00,67.0,63.0,-100.00,NW,320,0.0,2.0,87,-99.99,,,-99.99,,2013-06-16 11:53:00,
2013-06-16 07:02:00,67.0,63.0,-100.00,WSW,250,4.0,5.0,87,-99.99,,,-99.99,,2013-06-16 12:02:00,
2013-06-16 07:12:00,67.0,64.0,-100.00,West,275,4.0,6.0,88,-99.99,,,-99.99,,2013-06-16 12:12:00,
2013-06-16 07:22:00,67.0,64.0,-100.00,West,275,4.0,6.0,88,-99.99,,,-99.99,,2013-06-16 12:22:00,
2013-06-16 07:32:00,67.0,64.0,-100.00,West,275,4.0,6.0,88,-99.99,,,-99.99,,2013-06-16 12:32:00,
2013-06-16 07:42:00,68.0,64.0,-100.00,West,260,6.0,9.0,86,-99.99,,,-99.99,,2013-06-16 12:42:00,
2013-06-16 07:53:00,68.0,64.0,-100.00,West,260,6.0,9.0,86,-99.99,,,-99.99,,2013-06-16 12:53:00,
2013-06-16 08:01:00,69.0,65.0,-100.00,WNW,285,4.0,9.0,87,-99.99,,,-99.99,,2013-06-16 13:01:00,
2013-06-16 08:11:00,70.0,65.0,-100.00,WNW,285,4.0,7.0,83,-99.99,,,-99.99,,2013-06-16 13:11:00,
2013-06-16 08:22:00,70.0,65.0,-100.00,WNW,285,4.0,7.0,83,-99.99,,,-99.99,,2013-06-16 13:22:00,
2013-06-16 08:34:00,70.0,65.0,-100.00,West,275,5.0,9.0,82,-99.99,,,-99.99,,2013-06-16 13:34:00,
2013-06-16 08:43:00,71.0,64.0,-100.00,West,280,4.0,10.0,80,-99.99,,,-99.99,,2013-06-16 13:43:00,
2013-06-16 08:54:00,71.0,64.0,-100.00,West,280,4.0,10.0,80,-99.99,,,-99.99,,2013-06-16 13:54:00,
2013-06-16 09:02:00,71.0,64.0,-100.00,West,280,4.0,10.0,80,-99.99,,,-99.99,,2013-06-16 14:02:00,
2013-06-16 09:12:00,71.0,64.0,-100.00,West,280,4.0,10.0,80,-99.99,,,-99.99,,2013-06-16 14:12:00,
2013-06-16 09:34:00,74.0,65.0,-100.00,NW,315,4.0,9.0,74,-99.99,,,-99.99,,2013-06-16 14:34:00,
2013-06-16 09:44:00,75.0,65.0,-100.00,WNW,300,9.0,11.0,70,-99.99,,,-99.99,,2013-06-16 14:44:00,
2013-06-16 09:53:00,75.0,65.0,-100.00,WNW,300,9.0,11.0,70,-99.99,,,-99.99,,2013-06-16 14:53:00,
2013-06-16 10:02:00,76.0,66.0,-100.00,West,275,3.0,10.0,70,-99.99,,,-99.99,,2013-06-16 15:02:00,
2013-06-16 10:12:00,76.0,66.0,-100.00,West,275,3.0,10.0,70,-99.99,,,-99.99,,2013-06-16 15:12:00,
2013-06-16 10:23:00,76.0,66.0,-100.00,West,275,3.0,10.0,70,-99.99,,,-99.99,,2013-06-16 15:23:00,
2013-06-16 10:33:00,78.0,64.0,-100.00,NW,320,4.0,7.0,62,-99.99,,,-99.99,,2013-06-16 15:33:00,
2013-06-16 10:43:00,78.0,63.0,-100.00,NW,315,4.0,6.0,59,-99.99,,,-99.99,,2013-06-16 15:43:00,
2013-06-16 10:53:00,78.0,63.0,-100.00,NW,315,4.0,6.0,59,-99.99,,,-99.99,,2013-06-16 15:53:00,
2013-06-16 11:02:00,80.0,60.0,-100.00,North,5,6.0,9.0,51,-99.99,,,-99.99,,2013-06-16 16:02:00,
2013-06-16 11:12:00,81.0,58.0,-100.00,NW,325,7.0,9.0,47,-99.99,,,-99.99,,2013-06-16 16:12:00,
2013-06-16 11:23:00,81.0,58.0,-100.00,NW,325,7.0,9.0,47,-99.99,,,-99.99,,2013-06-16 16:23:00,
2013-06-16 11:33:00,81.0,58.0,-100.00,NNE,25,6.0,9.0,45,-99.99,,,-99.99,,2013-06-16 16:33:00,
2013-06-16 11:43:00,82.0,57.0,-100.00,NNW,345,0.0,5.0,42,-99.99,,,-99.99,,2013-06-16 16:43:00,
2013-06-16 11:53:00,82.0,57.0,-100.00,NNW,345,0.0,5.0,42,-99.99,,,-99.99,,2013-06-16 16:53:00,
2013-06-16 12:02:00,82.0,56.0,-100.00,NNE,15,4.0,6.0,42,-99.99,,,-99.99,,2013-06-16 17:02:00,
2013-06-16 12:12:00,82.0,56.0,-100.00,NNE,15,4.0,6.0,42,-99.99,,,-99.99,,2013-06-16 17:12:00,
2013-06-16 12:22:00,82.0,56.0,-100.00,NNE,15,4.0,6.0,42,-99.99,,,-99.99,,2013-06-16 17:22:00,
2013-06-16 12:34:00,84.0,52.0,-100.00,NE,35,4.0,8.0,34,-99.99,,,-99.99,,2013-06-16 17:34:00,
2013-06-16 12:43:00,83.0,52.0,-100.00,NNW,330,3.0,6.0,34,-99.99,,,-99.99,,2013-06-16 17:43:00,
2013-06-16 12:53:00,83.0,52.0,-100.00,NNW,330,3.0,6.0,34,-99.99,,,-99.99,,2013-06-16 17:53:00,
2013-06-16 13:02:00,83.0,52.0,-100.00,NNW,330,3.0,6.0,34,-99.99,,,-99.99,,2013-06-16 18:02:00,
2013-06-16 13:12:00,83.0,52.0,-100.00,NNW,330,3.0,6.0,34,-99.99,,,-99.99,,2013-06-16 18:12:00,
2013-06-16 13:34:00,83.0,52.0,-100.00,West,275,6.0,13.0,35,-99.99,,,-99.99,,2013-06-16 18:34:00,
2013-06-16 13:43:00,84.0,53.0,-100.00,NW,310,4.0,11.0,34,-99.99,,,-99.99,,2013-06-16 18:43:00,
2013-06-16 13:52:00,84.0,53.0,-100.00,NW,310,4.0,11.0,34,-99.99,,,-99.99,,2013-06-16 18:52:00,
2013-06-16 14:01:00,85.0,54.0,-100.00,SW,220,4.0,10.0,35,-99.99,,,-99.99,,2013-06-16 19:01:00,
2013-06-16 14:11:00,85.0,54.0,-100.00,SW,220,4.0,10.0,35,-99.99,,,-99.99,,2013-06-16 19:11:00,
2013-06-16 14:22:00,85.0,54.0,-100.00,SW,220,4.0,10.0,35,-99.99,,,-99.99,,2013-06-16 19:22:00,
2013-06-16 14:34:00,85.0,53.0,-100.00,SW,235,6.0,11.0,34,-99.99,,,-99.99,,2013-06-16 19:34:00,
2013-06-16 14:43:00,85.0,53.0,-100.00,WSW,255,4.0,9.0,34,-99.99,,,-99.99,,2013-06-16 19:43:00,
2013-06-16 14:53:00,85.0,53.0,-100.00,WSW,255,4.0,9.0,34,-99.99,,,-99.99,,2013-06-16 19:53:00,
2013-06-16 15:02:00,85.0,53.0,-100.00,West,270,6.0,11.0,33,-99.99,,,-99.99,,2013-06-16 20:02:00,
2013-06-16 15:11:00,85.0,53.0,-100.00,West,275,9.0,15.0,34,-99.99,,,-99.99,,2013-06-16 20:11:00,
2013-06-16 15:22:00,85.0,53.0,-100.00,West,275,9.0,15.0,34,-99.99,,,-99.99,,2013-06-16 20:22:00,
2013-06-16 15:33:00,86.0,54.0,-100.00,West,265,7.0,13.0,33,-99.99,,,-99.99,,2013-06-16 20:33:00,
2013-06-16 15:42:00,84.0,55.0,-100.00,WSW,250,7.0,14.0,38,-99.99,,,-99.99,,2013-06-16 20:42:00,
2013-06-16 15:53:00,84.0,55.0,-100.00,WSW,250,7.0,14.0,38,-99.99,,,-99.99,,2013-06-16 20:53:00,
2013-06-16 16:02:00,84.0,53.0,-100.00,West,270,4.0,10.0,35,-99.99,,,-99.99,,2013-06-16 21:02:00,
2013-06-16 16:11:00,85.0,54.0,-100.00,WNW,295,9.0,15.0,34,-99.99,,,-99.99,,2013-06-16 21:11:00,
2013-06-16 16:22:00,85.0,54.0,-100.00,WNW,295,9.0,15.0,34,-99.99,,,-99.99,,2013-06-16 21:22:00,
2013-06-16 16:32:00,84.0,53.0,-100.00,WSW,250,9.0,14.0,35,-99.99,,,-99.99,,2013-06-16 21:32:00,
2013-06-16 16:42:00,82.0,54.0,-100.00,WNW,285,6.0,10.0,38,-99.99,,,-99.99,,2013-06-16 21:42:00,
2013-06-16 16:53:00,82.0,54.0,-100.00,WNW,285,6.0,10.0,38,-99.99,,,-99.99,,2013-06-16 21:53:00,
2013-06-16 17:01:00,85.0,52.0,-100.00,West,270,6.0,11.0,32,-99.99,,,-99.99,,2013-06-16 22:01:00,
2013-06-16 17:12:00,84.0,52.0,-100.00,WNW,285,10.0,14.0,33,-99.99,,,-99.99,,2013-06-16 22:12:00,
2013-06-16 17:22:00,84.0,52.0,-100.00,WNW,285,10.0,14.0,33,-99.99,,,-99.99,,2013-06-16 22:22:00,
2013-06-16 17:32:00,86.0,54.0,-100.00,WNW,285,8.0,12.0,33,-99.99,,,-99.99,,2013-06-16 22:32:00,
2013-06-16 17:42:00,84.0,52.0,-100.00,West,275,6.0,14.0,33,-99.99,,,-99.99,,2013-06-16 22:42:00,
2013-06-16 17:52:00,84.0,52.0,-100.00,West,275,6.0,14.0,33,-99.99,,,-99.99,,2013-06-16 22:52:00,
2013-06-16 18:01:00,84.0,52.0,-100.00,West,280,10.0,17.0,33,-99.99,,,-99.99,,2013-06-16 23:01:00,
2013-06-16 18:11:00,84.0,50.0,-100.00,West,265,9.0,16.0,31,-99.99,,,-99.99,,2013-06-16 23:11:00,
2013-06-16 18:22:00,84.0,50.0,-100.00,West,265,9.0,16.0,31,-99.99,,,-99.99,,2013-06-16 23:22:00,
2013-06-16 18:32:00,83.0,50.0,-100.00,West,280,10.0,16.0,31,-99.99,,,-99.99,,2013-06-16 23:32:00,
2013-06-16 18:42:00,83.0,51.0,-100.00,WSW,250,6.0,11.0,33,-99.99,,,-99.99,,2013-06-16 23:42:00,
2013-06-16 18:52:00,83.0,51.0,-100.00,WSW,250,6.0,11.0,33,-99.99,,,-99.99,,2013-06-16 23:52:00,
2013-06-16 19:02:00,83.0,52.0,-100.00,WSW,255,7.0,10.0,34,-99.99,,,-99.99,,2013-06-17 00:02:00,
2013-06-16 19:11:00,83.0,50.0,-100.00,West,280,9.0,15.0,32,-99.99,,,-99.99,,2013-06-17 00:11:00,
2013-06-16 19:22:00,83.0,50.0,-100.00,West,280,9.0,15.0,32,-99.99,,,-99.99,,2013-06-17 00:22:00,
2013-06-16 19:32:00,83.0,50.0,-100.00,West,280,9.0,15.0,32,-99.99,,,-99.99,,2013-06-17 00:32:00,
2013-06-16 19:43:00,82.0,51.0,-100.00,WNW,300,6.0,9.0,34,-99.99,,,-99.99,,2013-06-17 00:43:00,
2013-06-16 19:52:00,82.0,51.0,-100.00,WNW,300,6.0,9.0,34,-99.99,,,-99.99,,2013-06-17 00:52:00,
2013-06-16 20:02:00,81.0,50.0,-100.00,NW,310,4.0,8.0,34,-99.99,,,-99.99,,2013-06-17 01:02:00,
2013-06-16 20:12:00,81.0,50.0,-100.00,WNW,285,4.0,6.0,35,-99.99,,,-99.99,,2013-06-17 01:12:00,
2013-06-16 20:22:00,81.0,50.0,-100.00,WNW,285,4.0,6.0,35,-99.99,,,-99.99,,2013-06-17 01:22:00,
2013-06-16 20:32:00,80.0,51.0,-100.00,West,275,4.0,6.0,37,-99.99,,,-99.99,,2013-06-17 01:32:00,
2013-06-16 20:43:00,78.0,51.0,-100.00,West,275,4.0,5.0,38,-99.99,,,-99.99,,2013-06-17 01:43:00,
2013-06-16 20:53:00,78.0,51.0,-100.00,West,275,4.0,5.0,38,-99.99,,,-99.99,,2013-06-17 01:53:00,
2013-06-16 21:02:00,77.0,52.0,-100.00,NW,315,2.0,4.0,41,-99.99,,,-99.99,,2013-06-17 02:02:00,
2013-06-16 21:12:00,77.0,52.0,-100.00,NW,315,2.0,4.0,41,-99.99,,,-99.99,,2013-06-17 02:12:00,
2013-06-16 21:22:00,77.0,52.0,-100.00,NW,315,2.0,4.0,41,-99.99,,,-99.99,,2013-06-17 02:22:00,
2013-06-16 21:34:00,73.0,54.0,-100.00,NNW,335,1.0,2.0,52,-99.99,,,-99.99,,2013-06-17 02:34:00,
2013-06-16 21:43:00,72.0,53.0,-100.00,NW,315,1.0,2.0,52,-99.99,,,-99.99,,2013-06-17 02:43:00,
2013-06-16 21:53:00,72.0,53.0,-100.00,NW,315,1.0,2.0,52,-99.99,,,-99.99,,2013-06-17 02:53:00,
2013-06-16 22:02:00,72.0,53.0,-100.00,NW,305,1.0,1.0,52,-99.99,,,-99.99,,2013-06-17 03:02:00,
2013-06-16 22:12:00,70.0,54.0,-100.00,NNW,330,1.0,2.0,58,-99.99,,,-99.99,,2013-06-17 03:12:00,
2013-06-16 22:22:00,70.0,54.0,-100.00,NNW,330,1.0,2.0,58,-99.99,,,-99.99,,2013-06-17 03:22:00,
2013-06-16 22:33:00,69.0,54.0,-100.00,WNW,300,1.0,2.0,60,-99.99,,,-99.99,,2013-06-17 03:33:00,
2013-06-16 22:44:00,69.0,54.0,-100.00,WNW,300,1.0,2.0,60,-99.99,,,-99.99,,2013-06-17 03:44:00,
2013-06-16 22:54:00,69.0,54.0,-100.00,WNW,300,1.0,2.0,60,-99.99,,,-99.99,,2013-06-17 03:54:00,
2013-06-16 23:02:00,69.0,55.0,-100.00,West,260,2.0,4.0,61,-99.99,,,-99.99,,2013-06-17 04:02:00,
2013-06-16 23:12:00,68.0,55.0,-100.00,SW,235,0.0,2.0,63,-99.99,,,-99.99,,2013-06-17 04:12:00,
2013-06-16 23:22:00,68.0,55.0,-100.00,SW,235,0.0,2.0,63,-99.99,,,-99.99,,2013-06-17 04:22:00,
2013-06-16 23:34:00,68.0,54.0,-100.00,ENE,60,2.0,2.0,61,-99.99,,,-99.99,,2013-06-17 04:34:00,
2013-06-16 23:43:00,68.0,54.0,-100.00,ENE,60,2.0,2.0,61,-99.99,,,-99.99,,2013-06-17 04:43:00,
2013-06-16 23:53:00,68.0,54.0,-100.00,ENE,60,2.0,2.0,61,-99.99,,,-99.99,,2013-06-17 04:53:00,